GFA213 OBBI-OKKK

Flight info

Callsign GFA213
Flight time 0h 52m
Altitude 26000
Route BHR A453 DEBTI
Aircraft A21N/M-SDE2E3FGHIRWXY/LB1

Departure

Time 2026-04-28 13:17
Airport Bahrain International Airport (OBBI)

Arrival

Time 2026-04-28 14:09
Airport Kuwait International Airport (OKKK)
Time Latitude Longitude Altitude Speed Heading
2026-04-28 11:45 26.27016 50.62713 26 ft 0 kts 213°
2026-04-28 12:45 26.27025 50.62720 52 ft 0 kts 213°
2026-04-28 12:59 26.27026 50.62720 52 ft 2 kts 213°
2026-04-28 12:59 26.27048 50.62735 26 ft 4 kts 208°
2026-04-28 13:00 26.27072 50.62748 25 ft 4 kts 198°
2026-04-28 13:00 26.27098 50.62753 25 ft 4 kts 173°
2026-04-28 13:00 26.27116 50.62744 26 ft 1 kts 123°
2026-04-28 13:05 26.27115 50.62745 27 ft 1 kts 123°
2026-04-28 13:05 26.27105 50.62765 28 ft 4 kts 121°
2026-04-28 13:05 26.27085 50.62800 25 ft 7 kts 123°
2026-04-28 13:05 26.27065 50.62854 25 ft 9 kts 89°
2026-04-28 13:06 26.27096 50.62900 25 ft 9 kts 46°
2026-04-28 13:06 26.27103 50.62973 25 ft 11 kts 107°
2026-04-28 13:06 26.27059 50.63052 25 ft 13 kts 123°
2026-04-28 13:06 26.27005 50.63144 24 ft 15 kts 122°
2026-04-28 13:07 26.26947 50.63248 24 ft 17 kts 122°
2026-04-28 13:07 26.26881 50.63364 26 ft 19 kts 125°
2026-04-28 13:07 26.26806 50.63490 26 ft 20 kts 122°
2026-04-28 13:07 26.26754 50.63580 24 ft 21 kts 123°
2026-04-28 13:08 26.26641 50.63776 25 ft 24 kts 122°
2026-04-28 13:08 26.26581 50.63880 25 ft 25 kts 122°
2026-04-28 13:08 26.26452 50.64104 27 ft 27 kts 123°
2026-04-28 13:08 26.26349 50.64282 27 ft 28 kts 122°
2026-04-28 13:09 26.26240 50.64470 24 ft 30 kts 122°
2026-04-28 13:09 26.26130 50.64660 24 ft 25 kts 122°
2026-04-28 13:09 26.26069 50.64767 25 ft 8 kts 122°
2026-04-28 13:09 26.26055 50.64792 25 ft 0 kts 122°
2026-04-28 13:10 26.26053 50.64794 25 ft 1 kts 122°
2026-04-28 13:10 26.26043 50.64812 26 ft 4 kts 122°
2026-04-28 13:10 26.26025 50.64852 25 ft 7 kts 109°
2026-04-28 13:11 26.26019 50.64894 25 ft 0 kts 88°
2026-04-28 13:11 26.26020 50.64903 25 ft 3 kts 82°
2026-04-28 13:12 26.26028 50.64934 25 ft 5 kts 66°
2026-04-28 13:12 26.26030 50.64939 25 ft 0 kts 59°
2026-04-28 13:13 26.26042 50.64959 26 ft 6 kts 47°
2026-04-28 13:14 26.26085 50.64994 27 ft 9 kts 32°
2026-04-28 13:14 26.26151 50.64980 27 ft 11 kts 312°
2026-04-28 13:14 26.26174 50.64941 27 ft 0 kts 300°
2026-04-28 13:16 26.26176 50.64938 27 ft 5 kts 301°
2026-04-28 13:16 26.26331 50.64669 26 ft 87 kts 303°
2026-04-28 13:16 26.26802 50.63855 25 ft 163 kts 303°
2026-04-28 13:16 26.27512 50.62622 262 ft 202 kts 305°
2026-04-28 13:17 26.28276 50.61296 1140 ft 203 kts 305°
2026-04-28 13:17 26.29061 50.60016 2230 ft 200 kts 313°
2026-04-28 13:17 26.30224 50.59163 3067 ft 207 kts 341°
2026-04-28 13:17 26.31704 50.58756 3596 ft 234 kts 346°
2026-04-28 13:18 26.33438 50.58423 3831 ft 271 kts 347°
2026-04-28 13:18 26.35357 50.58077 3973 ft 282 kts 348°
2026-04-28 13:18 26.37277 50.57655 4350 ft 282 kts 342°
2026-04-28 13:18 26.39202 50.57120 5229 ft 286 kts 342°
2026-04-28 13:19 26.41148 50.56578 6161 ft 290 kts 341°
2026-04-28 13:19 26.43114 50.56033 7054 ft 293 kts 341°
2026-04-28 13:19 26.45071 50.55492 7964 ft 296 kts 341°
2026-04-28 13:19 26.47082 50.54932 8916 ft 299 kts 341°
2026-04-28 13:20 26.49116 50.54368 9860 ft 303 kts 341°
2026-04-28 13:20 26.51189 50.53792 10591 ft 316 kts 341°
2026-04-28 13:20 26.53374 50.53183 11249 ft 328 kts 341°
2026-04-28 13:20 26.55593 50.52573 12221 ft 329 kts 341°
2026-04-28 13:21 26.57822 50.51961 13220 ft 331 kts 341°
2026-04-28 13:21 26.60064 50.51342 14111 ft 334 kts 341°
2026-04-28 13:21 26.62326 50.50720 14964 ft 336 kts 341°
2026-04-28 13:21 26.64601 50.50091 15789 ft 339 kts 340°
2026-04-28 13:22 26.66878 50.49462 16621 ft 342 kts 340°
2026-04-28 13:22 26.69165 50.48717 17469 ft 340 kts 332°
2026-04-28 13:22 26.71224 50.47479 18264 ft 334 kts 318°
2026-04-28 13:22 26.72974 50.45786 18933 ft 334 kts 311°
2026-04-28 13:23 26.74651 50.43967 19591 ft 339 kts 309°
2026-04-28 13:23 26.76374 50.42112 20246 ft 344 kts 309°
2026-04-28 13:23 26.78119 50.40252 20874 ft 349 kts 309°
2026-04-28 13:23 26.79893 50.38364 21482 ft 354 kts 309°
2026-04-28 13:24 26.81670 50.36480 22075 ft 359 kts 309°
2026-04-28 13:24 26.83485 50.34562 22783 ft 360 kts 308°
2026-04-28 13:24 26.85307 50.32641 23478 ft 360 kts 308°
2026-04-28 13:24 26.87128 50.30721 24128 ft 358 kts 308°
2026-04-28 13:25 26.88932 50.28813 24803 ft 355 kts 307°
2026-04-28 13:25 26.90732 50.26905 25375 ft 356 kts 307°
2026-04-28 13:25 26.92521 50.25005 25684 ft 353 kts 307°
2026-04-28 13:25 26.94307 50.23109 25769 ft 352 kts 307°
2026-04-28 13:26 26.96080 50.21223 25788 ft 352 kts 307°
2026-04-28 13:26 26.97831 50.19361 25772 ft 352 kts 307°
2026-04-28 13:26 26.99612 50.17465 25775 ft 352 kts 307°
2026-04-28 13:26 27.01390 50.15574 25775 ft 353 kts 307°
2026-04-28 13:27 27.03170 50.13681 25770 ft 353 kts 307°
2026-04-28 13:27 27.04911 50.11757 25768 ft 349 kts 303°
2026-04-28 13:27 27.06503 50.09716 25769 ft 347 kts 301°
2026-04-28 13:27 27.08063 50.07659 25778 ft 347 kts 301°
2026-04-28 13:28 27.09631 50.05589 25783 ft 348 kts 301°
2026-04-28 13:28 27.11201 50.03519 25774 ft 349 kts 301°
2026-04-28 13:28 27.12769 50.01451 25771 ft 349 kts 301°
2026-04-28 13:28 27.14336 49.99378 25771 ft 348 kts 301°
2026-04-28 13:29 27.15903 49.97297 25770 ft 348 kts 301°
2026-04-28 13:29 27.17455 49.95245 25753 ft 349 kts 302°
2026-04-28 13:29 27.19031 49.93167 25757 ft 349 kts 302°
2026-04-28 13:29 27.20601 49.91099 25759 ft 350 kts 302°
2026-04-28 13:30 27.22188 49.89006 25765 ft 356 kts 302°
2026-04-28 13:30 27.23820 49.86844 25767 ft 367 kts 302°
2026-04-28 13:30 27.25487 49.84656 25765 ft 368 kts 302°
2026-04-28 13:30 27.27147 49.82467 25761 ft 368 kts 302°
2026-04-28 13:31 27.30465 49.78082 25754 ft 368 kts 302°
2026-04-28 13:31 27.32101 49.75921 25752 ft 368 kts 302°
2026-04-28 13:31 27.33755 49.73730 25757 ft 367 kts 302°
2026-04-28 13:32 27.35408 49.71538 25756 ft 367 kts 302°
2026-04-28 13:32 27.37054 49.69349 25744 ft 367 kts 302°
2026-04-28 13:32 27.38699 49.67161 25745 ft 366 kts 302°
2026-04-28 13:32 27.40347 49.64966 25760 ft 367 kts 302°
2026-04-28 13:33 27.42000 49.62771 25756 ft 368 kts 302°
2026-04-28 13:33 27.43659 49.60582 25744 ft 368 kts 302°
2026-04-28 13:33 27.45325 49.58385 25742 ft 368 kts 302°
2026-04-28 13:33 27.46989 49.56196 25744 ft 368 kts 302°
2026-04-28 13:34 27.48775 49.54110 25740 ft 376 kts 310°
2026-04-28 13:34 27.50812 49.52232 25743 ft 379 kts 313°
2026-04-28 13:34 27.52857 49.50424 25742 ft 378 kts 313°
2026-04-28 13:34 27.54926 49.48593 25739 ft 378 kts 313°
2026-04-28 13:35 27.56992 49.46753 25747 ft 379 kts 313°
2026-04-28 13:35 27.59056 49.44908 25741 ft 379 kts 313°
2026-04-28 13:35 27.61121 49.43059 25736 ft 379 kts 313°
2026-04-28 13:35 27.63188 49.41204 25735 ft 379 kts 313°
2026-04-28 13:36 27.65251 49.39350 25736 ft 379 kts 313°
2026-04-28 13:36 27.67315 49.37497 25739 ft 379 kts 313°
2026-04-28 13:36 27.69381 49.35644 25738 ft 379 kts 313°
2026-04-28 13:36 27.71422 49.33812 25732 ft 379 kts 313°
2026-04-28 13:37 27.73485 49.31955 25732 ft 379 kts 313°
2026-04-28 13:37 27.75546 49.30099 25743 ft 379 kts 313°
2026-04-28 13:37 27.77614 49.28239 25741 ft 379 kts 313°
2026-04-28 13:37 27.79676 49.26384 25739 ft 379 kts 313°
2026-04-28 13:38 27.81733 49.24527 25729 ft 378 kts 313°
2026-04-28 13:38 27.83779 49.22686 25731 ft 373 kts 313°
2026-04-28 13:38 27.85797 49.20849 25729 ft 376 kts 312°
2026-04-28 13:38 27.87899 49.19040 25733 ft 384 kts 318°
2026-04-28 13:39 27.90195 49.17458 25732 ft 388 kts 321°
2026-04-28 13:39 27.92502 49.15955 25741 ft 387 kts 321°
2026-04-28 13:39 27.94839 49.14443 25732 ft 387 kts 321°
2026-04-28 13:39 27.97176 49.12921 25729 ft 387 kts 321°
2026-04-28 13:40 27.99508 49.11391 25726 ft 387 kts 321°
2026-04-28 13:40 28.01826 49.09868 25726 ft 387 kts 321°
2026-04-28 13:40 28.04158 49.08338 25729 ft 386 kts 321°
2026-04-28 13:40 28.06478 49.06813 25723 ft 384 kts 321°
2026-04-28 13:41 28.08771 49.05310 25719 ft 378 kts 321°
2026-04-28 13:41 28.11054 49.03806 25688 ft 383 kts 321°
2026-04-28 13:41 28.13334 49.02298 25341 ft 384 kts 321°
2026-04-28 13:41 28.15648 49.00785 24850 ft 385 kts 322°
2026-04-28 13:42 28.17980 48.99264 24287 ft 386 kts 322°
2026-04-28 13:42 28.20300 48.97739 23722 ft 386 kts 322°
2026-04-28 13:42 28.22616 48.96204 23172 ft 384 kts 322°
2026-04-28 13:42 28.24912 48.94686 22574 ft 381 kts 322°
2026-04-28 13:43 28.27187 48.93187 22024 ft 377 kts 322°
2026-04-28 13:43 28.29440 48.91695 21528 ft 375 kts 323°
2026-04-28 13:43 28.31696 48.90205 21206 ft 373 kts 323°
2026-04-28 13:43 28.33931 48.88734 20936 ft 371 kts 323°
2026-04-28 13:44 28.36134 48.87285 20679 ft 370 kts 323°
2026-04-28 13:44 28.38355 48.85818 20438 ft 368 kts 323°
2026-04-28 13:44 28.40566 48.84353 20196 ft 367 kts 323°
2026-04-28 13:44 28.42767 48.82901 19956 ft 365 kts 323°
2026-04-28 13:45 28.44961 48.81450 19717 ft 364 kts 323°
2026-04-28 13:45 28.47117 48.80025 19494 ft 352 kts 323°
2026-04-28 13:45 28.49185 48.78653 19294 ft 339 kts 322°
2026-04-28 13:45 28.51209 48.77305 19002 ft 335 kts 322°
2026-04-28 13:46 28.53209 48.75963 18753 ft 333 kts 322°
2026-04-28 13:46 28.55180 48.74647 18522 ft 332 kts 322°
2026-04-28 13:46 28.57115 48.73243 18289 ft 326 kts 315°
2026-04-28 13:46 28.58666 48.71432 18057 ft 316 kts 302°
2026-04-28 13:47 28.59986 48.69451 17812 ft 314 kts 300°
2026-04-28 13:47 28.61289 48.67461 17677 ft 313 kts 301°
2026-04-28 13:47 28.62589 48.65479 17677 ft 312 kts 300°
2026-04-28 13:47 28.63886 48.63513 17692 ft 310 kts 300°
2026-04-28 13:48 28.65185 48.61551 17691 ft 310 kts 301°
2026-04-28 13:48 28.66489 48.59592 17701 ft 310 kts 301°
2026-04-28 13:48 28.67790 48.57630 17801 ft 310 kts 301°
2026-04-28 13:48 28.69074 48.55696 17910 ft 311 kts 300°
2026-04-28 13:49 28.70371 48.53724 17969 ft 311 kts 300°
2026-04-28 13:49 28.71654 48.51784 17807 ft 304 kts 300°
2026-04-28 13:49 28.72947 48.49873 17263 ft 305 kts 303°
2026-04-28 13:49 28.74571 48.48256 16693 ft 317 kts 321°
2026-04-28 13:50 28.76500 48.47019 16186 ft 319 kts 325°
2026-04-28 13:50 28.78463 48.45834 15675 ft 319 kts 325°
2026-04-28 13:50 28.80421 48.44649 15210 ft 318 kts 326°
2026-04-28 13:50 28.82368 48.43456 14895 ft 319 kts 326°
2026-04-28 13:51 28.84315 48.42261 14635 ft 319 kts 326°
2026-04-28 13:51 28.86254 48.41074 14398 ft 318 kts 326°
2026-04-28 13:51 28.88203 48.39884 14160 ft 318 kts 326°
2026-04-28 13:51 28.90147 48.38692 13927 ft 317 kts 326°
2026-04-28 13:52 28.92083 48.37495 13708 ft 316 kts 326°
2026-04-28 13:52 28.94006 48.36304 13507 ft 311 kts 326°
2026-04-28 13:52 28.95878 48.35144 13294 ft 301 kts 326°
2026-04-28 13:52 28.97685 48.34019 13089 ft 291 kts 326°
2026-04-28 13:53 28.99429 48.32935 12961 ft 278 kts 326°
2026-04-28 13:53 29.01079 48.31909 12939 ft 263 kts 325°
2026-04-28 13:53 29.02670 48.30915 12637 ft 262 kts 325°
2026-04-28 13:53 29.04274 48.29909 12304 ft 262 kts 325°
2026-04-28 13:54 29.05868 48.28914 11983 ft 260 kts 325°
2026-04-28 13:54 29.07448 48.27930 11608 ft 259 kts 325°
2026-04-28 13:54 29.09007 48.26956 11237 ft 258 kts 325°
2026-04-28 13:54 29.10577 48.25975 10872 ft 257 kts 325°
2026-04-28 13:55 29.12136 48.24999 10525 ft 256 kts 325°
2026-04-28 13:55 29.13704 48.24019 10184 ft 255 kts 325°
2026-04-28 13:55 29.15251 48.23052 9852 ft 253 kts 325°
2026-04-28 13:55 29.16786 48.22091 9518 ft 251 kts 325°
2026-04-28 13:56 29.18312 48.21136 9167 ft 249 kts 326°
2026-04-28 13:56 29.19813 48.20199 8907 ft 241 kts 325°
2026-04-28 13:56 29.21249 48.19304 8721 ft 229 kts 325°
2026-04-28 13:56 29.22621 48.18447 8449 ft 220 kts 325°
2026-04-28 13:57 29.23946 48.17614 8103 ft 217 kts 325°
2026-04-28 13:57 29.25268 48.16785 7694 ft 217 kts 325°
2026-04-28 13:57 29.26578 48.15964 7312 ft 217 kts 325°
2026-04-28 13:57 29.27901 48.15135 6941 ft 216 kts 325°
2026-04-28 13:58 29.29219 48.14307 6568 ft 216 kts 325°
2026-04-28 13:58 29.30536 48.13480 6217 ft 215 kts 325°
2026-04-28 13:58 29.31843 48.12658 5841 ft 215 kts 324°
2026-04-28 13:58 29.33152 48.11834 5467 ft 214 kts 324°
2026-04-28 13:59 29.34455 48.11017 5104 ft 213 kts 324°
2026-04-28 13:59 29.35725 48.10177 4746 ft 211 kts 323°
2026-04-28 13:59 29.36991 48.09327 4389 ft 210 kts 322°
2026-04-28 13:59 29.38249 48.08483 4026 ft 209 kts 323°
2026-04-28 14:00 29.39500 48.07642 3660 ft 209 kts 322°
2026-04-28 14:00 29.40736 48.06813 3315 ft 208 kts 323°
2026-04-28 14:00 29.41957 48.05999 3090 ft 199 kts 323°
2026-04-28 14:00 29.43093 48.05138 2974 ft 192 kts 309°
2026-04-28 14:01 29.43984 48.04009 2991 ft 190 kts 304°
2026-04-28 14:01 29.44843 48.02864 3000 ft 188 kts 301°
2026-04-28 14:01 29.45302 48.01529 2995 ft 179 kts 275°
2026-04-28 14:01 29.45477 48.00126 3008 ft 175 kts 274°
2026-04-28 14:02 29.45553 47.98731 2994 ft 178 kts 259°
2026-04-28 14:02 29.45120 47.97417 2998 ft 172 kts 244°
2026-04-28 14:02 29.44625 47.96181 2720 ft 170 kts 244°
2026-04-28 14:02 29.44124 47.94944 2439 ft 172 kts 244°
2026-04-28 14:03 29.43610 47.93699 2387 ft 171 kts 244°
2026-04-28 14:03 29.43116 47.92506 2245 ft 166 kts 244°
2026-04-28 14:03 29.42620 47.91293 2018 ft 170 kts 243°
2026-04-28 14:03 29.42119 47.90043 1980 ft 174 kts 243°
2026-04-28 14:04 29.41378 47.88977 1972 ft 174 kts 214°
2026-04-28 14:04 29.40181 47.88643 2008 ft 182 kts 190°
2026-04-28 14:04 29.38912 47.88579 2010 ft 182 kts 188°
2026-04-28 14:04 29.37649 47.88508 2005 ft 183 kts 189°
2026-04-28 14:05 29.36373 47.88440 2002 ft 184 kts 189°
2026-04-28 14:05 29.35099 47.88384 1995 ft 182 kts 188°
2026-04-28 14:05 29.33870 47.88493 1976 ft 175 kts 174°
2026-04-28 14:05 29.32723 47.88929 1999 ft 175 kts 165°
2026-04-28 14:06 29.31605 47.89490 1991 ft 176 kts 162°
2026-04-28 14:06 29.30495 47.90079 1821 ft 176 kts 162°
2026-04-28 14:06 29.29388 47.90670 1627 ft 176 kts 162°
2026-04-28 14:06 29.28362 47.91223 1389 ft 148 kts 163°
2026-04-28 14:07 29.27500 47.91683 1186 ft 133 kts 164°
2026-04-28 14:07 29.26656 47.92132 1013 ft 136 kts 164°
2026-04-28 14:07 29.25813 47.92586 843 ft 127 kts 161°
2026-04-28 14:07 29.25029 47.92996 682 ft 122 kts 159°
2026-04-28 14:08 29.24268 47.93385 578 ft 120 kts 155°
2026-04-28 14:08 29.23510 47.93813 434 ft 122 kts 152°
2026-04-28 14:08 29.22756 47.94235 260 ft 120 kts 150°
2026-04-28 14:08 29.22047 47.94616 219 ft 99 kts 155°
2026-04-28 14:09 29.21968 47.94670 224 ft 0 kts 285°
2026-04-28 14:09 29.21966 47.94662 226 ft 3 kts 249°
2026-04-28 14:09 29.21920 47.94659 221 ft 15 kts 167°
2026-04-28 14:09 29.21790 47.94716 224 ft 13 kts 158°
2026-04-28 14:10 29.21744 47.94764 223 ft 4 kts 139°
2026-04-28 14:10 29.21680 47.94809 223 ft 29 kts 155°
2026-04-28 14:10 29.21494 47.94908 221 ft 30 kts 150°
2026-04-28 14:10 29.21424 47.95015 220 ft 9 kts 76°
2026-04-28 14:11 29.21471 47.95067 220 ft 11 kts 18°
2026-04-28 14:11 29.21562 47.95076 223 ft 14 kts 357°
2026-04-28 14:11 29.21659 47.95051 220 ft 15 kts 337°
2026-04-28 14:11 29.21760 47.94998 215 ft 17 kts 336°
2026-04-28 14:12 29.21859 47.94947 205 ft 14 kts 335°
2026-04-28 14:12 29.21935 47.94970 191 ft 10 kts 47°
2026-04-28 14:12 29.21965 47.95017 180 ft 7 kts 63°
2026-04-28 14:12 29.21983 47.95058 175 ft 4 kts 64°
2026-04-28 14:13 29.22028 47.95162 172 ft 26 kts 64°
2026-04-28 14:13 29.22118 47.95380 167 ft 31 kts 65°
2026-04-28 14:13 29.22216 47.95612 166 ft 33 kts 65°
2026-04-28 14:13 29.22313 47.95856 166 ft 34 kts 66°
2026-04-28 14:14 29.22416 47.96114 164 ft 36 kts 65°
2026-04-28 14:14 29.22522 47.96377 166 ft 32 kts 66°
2026-04-28 14:14 29.22580 47.96522 164 ft 14 kts 68°
2026-04-28 14:14 29.22624 47.96607 164 ft 13 kts 34°
2026-04-28 14:15 29.22718 47.96615 166 ft 16 kts 339°
2026-04-28 14:15 29.22824 47.96555 165 ft 18 kts 336°
2026-04-28 14:15 29.22945 47.96491 167 ft 21 kts 341°
2026-04-28 14:15 29.23018 47.96526 168 ft 12 kts 62°
2026-04-28 14:16 29.23056 47.96622 168 ft 15 kts 66°
2026-04-28 14:16 29.23103 47.96737 169 ft 15 kts 61°
2026-04-28 14:16 29.23134 47.96806 170 ft 0 kts 65°
2026-04-28 14:17 29.23138 47.96817 171 ft 4 kts 65°
2026-04-28 14:17 29.23173 47.96855 170 ft 9 kts 12°
2026-04-28 14:17 29.23245 47.96830 170 ft 13 kts 335°
2026-04-28 14:17 29.23321 47.96789 169 ft 0 kts 335°
2026-04-28 14:18 29.23323 47.96788 169 ft 2 kts 335°
2026-04-28 14:18 29.23348 47.96775 170 ft 6 kts 335°
2026-04-28 14:18 29.23397 47.96786 169 ft 8 kts 38°
2026-04-28 14:18 29.23432 47.96849 169 ft 11 kts 74°
2026-04-28 14:19 29.23457 47.96940 170 ft 14 kts 68°
2026-04-28 14:19 29.23498 47.97048 172 ft 16 kts 66°
2026-04-28 14:19 29.23549 47.97178 172 ft 19 kts 64°
2026-04-28 14:19 29.23606 47.97322 172 ft 21 kts 68°
2026-04-28 14:20 29.23645 47.97422 172 ft 12 kts 59°
2026-04-28 14:20 29.23700 47.97456 172 ft 8 kts 359°
2026-04-28 14:20 29.23741 47.97442 172 ft 6 kts 336°
2026-04-28 14:20 29.23791 47.97415 172 ft 9 kts 336°
2026-04-28 14:21 29.23805 47.97408 172 ft 2 kts 335°
2026-04-28 14:21 29.23814 47.97403 172 ft 1 kts 332°
2026-04-28 14:21 29.23825 47.97391 172 ft 3 kts 304°
2026-04-28 14:21 29.23826 47.97355 172 ft 5 kts 251°
2026-04-28 14:22 29.23814 47.97328 172 ft 5 kts 244°
2026-04-28 14:22 29.23803 47.97303 172 ft 0 kts 245°